Location: Theydon Bois
(51.6750°N, 0.1050°E)
Time: 19:47:31
(UTC+00:00)

ISS - Visible Passes

Search period start: 27 February 2021 00:00
Search period end: 09 March 2021 00:00
Orbit: 417 x 422 km, 51.6° (Epoch: 27 February)

Date Brightness Start Highest point End Pass type
(mag) Time Alt. Az. Time Alt. Az. Time Alt. Az.
27 Feb -0.9 03:52:06 16° ESE 03:52:06 16° ESE 03:53:09 10° E visible
27 Feb -3.7 05:25:04 26° WSW 05:26:50 72° SSE 05:30:12 10° E visible
28 Feb -3.5 04:39:28 58° SSE 04:39:28 58° SSE 04:42:44 10° E visible
01 Mar -1.3 03:53:50 22° E 03:53:50 22° E 03:55:14 10° E visible
01 Mar -3.8 05:26:47 24° W 05:28:42 90° WNW 05:32:05 10° E visible
02 Mar -3.9 04:41:07 81° SW 04:41:14 83° S 04:44:37 10° E visible
03 Mar -1.7 03:55:26 27° E 03:55:26 27° E 03:57:08 10° E visible
03 Mar -3.8 05:28:23 20° W 05:30:34 88° SSW 05:33:57 10° E visible
04 Mar -3.9 04:42:42 68° W 04:43:06 88° N 04:46:29 10° E visible
05 Mar -2.0 03:57:02 32° E 03:57:02 32° E 03:58:58 10° E visible
05 Mar -3.7 05:29:59 17° W 05:32:24 67° SSW 05:35:45 10° ESE visible
06 Mar -0.3 03:11:23 11° E 03:11:23 11° E 03:11:30 10° E visible
06 Mar -3.9 04:44:20 57° W 04:44:56 80° S 04:48:18 10° ESE visible
07 Mar -2.3 03:58:43 36° E 03:58:43 36° E 04:00:49 10° E visible
07 Mar -3.1 05:31:40 15° W 05:34:06 40° SSW 05:37:17 10° SE visible
08 Mar -0.5 03:13:09 11° E 03:13:09 11° E 03:13:19 10° E visible
08 Mar -3.6 04:46:06 46° WSW 04:46:40 53° SSW 04:49:58 10° ESE visible
